FW7122 Weather Reports


time (UTC)temp
C
wind
direction
speed
KPH
gust
KPH
rain 1hr
cm
rain 24hr
cm
rain mn
cm
humidity
%
barometer
mb
20260506122316 8 27 0.0 0.0 0.10 0.00 1.27 97 1009.6
20260506121848 8 27 0.0 0.0 0.10 0.00 1.27 97 1009.4
20260506121320 8 27 0.0 0.0 0.10 0.00 1.24 97 1009.3
20260506120812 8 27 0.0 0.0 0.10 0.00 1.24 97 1009.3
20260506120326 8 27 0.0 0.0 0.13 0.00 1.24 97 1009.3
20260506115819 8 27 0.0 0.0 0.10 0.00 1.22 97 1009.4
20260506115311 8 27 0.0 0.0 0.10 0.00 1.22 97 1009.5
20260506114823 8 27 0.0 0.0 0.13 0.00 1.22 97 1009.4
20260506114320 8 27 0.0 0.0 0.13 0.00 1.22 97 1009.4
20260506113812 8 27 0.0 0.0 0.13 0.00 1.19 97 1009.4
20260506113326 8 27 0.0 0.0 0.13 0.00 1.19 97 1009.3
20260506112818 8 27 0.0 0.0 0.10 0.00 1.17 97 1009.1
20260506112330 8 27 0.0 0.0 0.13 0.00 1.17 97 1009.0
20260506111822 7 27 0.0 0.0 0.13 0.00 1.17 97 1008.6
20260506111314 7 27 0.0 0.0 0.13 0.00 1.14 97 1008.5
20260506110811 7 27 0.0 0.0 0.13 0.00 1.14 97 1008.6
20260506110324 7 27 0.0 0.0 0.15 0.00 1.14 97 1008.6
20260506105836 7 27 0.0 0.0 0.13 0.00 1.12 97 1008.6
20260506105327 7 27 0.0 0.0 0.15 0.00 1.12 97 1008.5
20260506104819 7 27 0.0 0.0 0.13 0.00 1.09 97 1007.9
20260506104311 7 27 0.0 0.0 0.15 0.00 1.09 97 1008.1
20260506103823 7 27 0.0 0.0 0.15 0.00 1.07 97 1008.2
20260506103315 7 27 0.0 0.0 0.15 0.00 1.07 97 1007.9
20260506102848 7 27 0.0 0.0 0.15 0.00 1.07 97 1007.8
20260506102319 7 27 0.0 0.0 0.15 0.00 1.04 97 1008.1
20260506101815 7 26 0.0 0.0 0.18 0.00 1.04 97 1008.5
20260506101326 7 26 0.0 0.0 0.15 0.00 1.02 97 1008.6
20260506100819 7 26 0.0 0.0 0.18 0.00 1.02 97 1008.4
20260506100311 7 26 0.0 0.0 0.18 0.00 0.99 97 1008.4
20260506095823 7 26 0.0 0.0 0.18 0.00 0.99 97 1008.0
20260506095315 7 26 0.0 0.0 0.18 0.00 0.97 97 1007.6
20260506094827 7 26 0.0 0.0 0.18 0.00 0.97 97 1007.6
20260506094320 7 26 0.0 0.0 0.18 0.00 0.94 97 1007.6
20260506093836 7 26 0.0 0.0 0.18 0.00 0.91 97 1007.6
20260506093327 7 26 0.0 0.0 0.18 0.00 0.91 97 1007.7
20260506092820 7 26 0.0 0.0 0.20 0.00 0.91 97 1007.8
20260506092311 7 26 0.0 0.0 0.18 0.00 0.89 97 1008.1
20260506091824 7 26 0.0 0.0 0.15 0.00 0.86 97 1008.2
20260506091316 7 26 0.0 0.0 0.18 0.00 0.86 97 1008.3
20260506090828 7 26 0.0 0.0 0.18 0.00 0.84 97 1008.5
20260506090322 7 26 0.0 0.0 0.15 0.00 0.81 97 1008.6
20260506085817 8 26 0.0 0.0 0.18 0.00 0.81 97 1008.6
20260506085350 8 26 0.0 0.0 0.18 0.00 0.79 97 1008.4
20260506084820 8 26 0.0 0.0 0.20 0.00 0.79 97 1008.3
20260506084313 8 26 0.0 0.0 0.18 0.00 0.76 97 1008.2
20260506083825 8 26 0.0 0.0 0.18 0.00 0.74 97 1008.1
20260506083316 8 26 0.0 0.0 0.20 0.00 0.74 97 1007.9
20260506082828 8 26 0.0 0.0 0.20 0.00 0.71 97 1008.0
20260506082320 8 26 0.0 0.0 0.23 0.00 0.71 97 1008.1
20260506081812 8 26 0.0 0.0 0.23 0.00 0.71 97 1007.9
20260506081329 8 26 0.0 0.0 0.23 0.00 0.69 97 1007.9
20260506080841 8 26 0.0 0.0 0.25 0.00 0.69 97 1008.0
20260506080312 8 26 0.0 0.0 0.23 0.00 0.66 97 1008.3
20260506073322 8 26 0.0 0.0 0.20 0.00 0.53 97 1008.3
20260506072818 8 26 0.0 0.0 0.20 0.00 0.51 97 1008.2
20260506072331 8 26 0.0 0.0 0.23 0.00 0.51 97 1008.2
20260506071822 8 26 0.0 0.0 0.23 0.00 0.48 97 1008.1
20260506071334 8 26 0.0 0.0 0.23 0.00 0.46 97 1008.1
20260506070826 8 26 0.0 0.0 0.20 0.00 0.43 97 1008.1
20260506070317 8 26 0.0 0.0 0.23 0.00 0.43 97 1008.1
20260506062316 8 26 0.0 0.0 0.20 0.00 0.28 97 1007.8
20260506061827 8 26 0.0 0.0 0.20 0.00 0.25 96 1008.0
20260506061319 8 26 0.0 0.0 0.20 0.00 0.23 96 1008.2
20260506060812 8 26 0.0 0.0 0.20 0.00 0.23 96 1008.3
20260506060324 8 26 0.0 0.0 0.20 0.00 0.20 96 1008.3
20260506051311 8 26 0.0 0.0 0.23 0.00 0.03 96 1008.2
20260506050824 8 26 0.0 0.0 0.25 0.00 0.03 96 1008.3
20260506050315 8 26 0.0 0.0 0.23 0.00 0.00 96 1008.2
20260506044831 8 26 0.0 0.0 0.25 0.00 1.65 96 1008.4
20260506044319 8 26 0.0 0.0 0.25 0.00 1.63 96 1008.5
20260506043811 8 26 0.0 0.0 0.25 0.00 1.60 96 1008.4
20260506043323 8 26 0.0 0.0 0.25 0.00 1.57 96 1008.4
20260506042819 8 26 0.0 0.0 0.28 0.00 1.57 96 1008.6
20260506042311 8 26 0.0 0.0 0.28 0.00 1.55 96 1008.6
20260506041823 8 26 0.0 0.0 0.28 0.00 1.52 96 1008.7
20260506041315 8 26 0.0 0.0 0.28 0.00 1.50 96 1008.7
20260506040827 8 26 0.0 0.0 0.28 0.00 1.47 96 1008.8
20260506040320 8 26 0.0 0.0 0.30 0.00 1.47 96 1008.9
20260506035812 8 26 0.0 0.0 0.30 0.00 1.45 96 1008.8
20260506035344 8 26 0.0 0.0 0.30 0.00 1.42 96 1009.0
20260506034819 9 26 0.0 0.0 0.33 0.00 1.40 96 1009.0
20260506034330 9 26 0.0 0.0 0.33 0.00 1.37 96 1009.1
20260506033822 9 26 0.0 0.0 0.33 0.00 1.35 96 1009.1
20260506033311 9 26 0.0 0.0 0.00 0.00 1.32 96 1009.3
20260506032824 9 26 0.0 0.0 0.00 0.00 1.30 96 1009.3
20260506032315 9 26 0.0 0.0 0.00 0.00 1.27 96 1009.4
20260506031828 10 26 0.0 0.0 0.00 0.00 1.24 96 1009.3
20260506031320 10 26 0.0 0.0 0.00 0.00 1.22 96 1009.3
20260506030833 10 26 0.0 0.0 0.00 0.00 1.19 96 1009.2
20260506030328 10 26 0.0 0.0 0.00 0.00 1.17 96 1009.2
20260506025820 10 26 0.0 0.0 0.00 0.00 1.14 96 1009.2
20260506025312 10 26 0.0 0.0 0.00 0.00 1.12 96 1009.3
20260506024825 10 26 0.0 0.0 0.00 0.00 1.07 96 1009.2
20260506024317 10 26 0.0 0.0 0.00 0.00 1.04 96 1009.4
20260506023851 10 26 0.0 0.0 0.00 0.00 1.02 96 1009.3
20260506014040 10 26 0.0 0.0 0.15 0.76 0.76 96 1008.5
20260506013532 10 26 0.0 0.0 0.15 0.76 0.76 96 1008.4
20260506013045 10 26 0.0 0.0 0.13 0.74 0.74 96 1008.3
20260506012536 10 26 0.0 0.0 0.10 0.71 0.71 96 1008.4
20260506012027 10 26 0.0 0.0 0.13 0.71 0.71 96 1008.5
20260506011539 10 26 0.0 0.0 0.10 0.69 0.69 96 1008.4
20260506011035 10 26 0.0 0.0 0.10 0.66 0.66 96 1008.5
20260506010526 10 26 0.0 0.0 0.10 0.66 0.66 96 1008.4
20260506010036 10 26 0.0 0.0 0.10 0.66 0.66 96 1008.4
20260506005527 10 26 0.0 0.0 0.08 0.64 0.64 95 1008.4
20260506005041 10 26 0.0 0.0 0.10 0.64 0.64 95 1008.4
20260506004531 10 26 0.0 0.0 0.08 0.61 0.61 95 1008.4
20260506004042 10 26 0.0 0.0 0.08 0.61 0.61 95 1008.3
20260506003552 10 26 0.0 0.0 0.10 0.61 0.61 96 1008.3
20260506003043 10 26 0.0 0.0 0.10 0.61 0.61 95 1008.4
20260506002535 10 26 0.0 4.8 0.10 0.61 0.61 95 1008.4
20260506002027 10 26 0.0 4.8 0.08 0.58 0.58 95 1008.2
20260506001542 10 26 0.0 0.0 0.10 0.58 0.58 95 1008.1
20260506001033 10 26 0.0 0.0 0.08 0.56 0.56 95 1007.9
20260506000546 10 26 0.0 0.0 0.10 0.56 0.56 95 1007.9
20260506000038 10 26 0.0 0.0 0.10 0.56 0.56 95 1007.8
20260505235530 10 26 0.0 4.8 0.10 0.56 0.56 95 1007.9
20260505235039 10 26 0.0 6.4 0.10 0.56 0.56 95 1007.9
20260505234551 10 27 0.0 0.0 0.10 0.53 0.53 95 1007.8
20260505234042 10 26 0.0 0.0 0.10 0.53 0.53 95 1007.9
20260505233534 10 26 0.0 4.8 0.10 0.51 0.51 95 1007.9
20260505233030 10 26 1.6 4.8 0.10 0.51 0.51 95 1007.9
20260505232543 10 26 0.0 0.0 0.10 0.51 0.51 95 1007.9
20260505232034 10 26 0.0 0.0 0.10 0.51 0.51 95 1008.0
20260505231606 10 26 0.0 0.0 0.08 0.48 0.48 95 1007.9
20260505231037 10 26 0.0 6.4 0.10 0.48 0.48 95 1008.0
20260505230529 10 26 0.0 6.4 0.08 0.46 0.46 95 1008.1
20260505230041 10 27 0.0 0.0 0.08 0.46 0.46 94 1008.4
20260505225533 10 27 0.0 0.0 0.10 0.46 0.46 94 1008.5
20260505225042 10 27 0.0 6.4 0.10 0.46 0.46 94 1008.5
20260505224539 10 27 1.6 6.4 0.08 0.43 0.43 94 1008.5
20260505224031 10 27 0.0 0.0 0.08 0.43 0.43 94 1008.5
20260505223543 11 27 0.0 3.2 0.08 0.41 0.41 94 1008.5
20260505223032 11 27 0.0 6.4 0.08 0.41 0.41 94 1008.5
20260505222544 11 27 0.0 6.4 0.08 0.41 0.41 94 1008.3
20260505222056 11 28 1.6 8.0 0.10 0.41 0.41 94 1008.0
20260505221527 11 28 0.0 0.0 0.10 0.41 0.41 94 1008.1
20260505221039 11 28 0.0 4.8 0.08 0.38 0.38 94 1008.0
20260505220532 11 28 0.0 4.8 0.08 0.38 0.38 94 1008.1
20260505220025 11 34 0.0 6.4 0.10 0.38 0.38 93 1008.1
20260505215539 11 34 1.6 6.4 0.08 0.36 0.36 93 1007.9
20260505215032 11 34 0.0 0.0 0.10 0.36 0.36 93 1007.9
20260505214543 12 34 0.0 8.0 0.10 0.36 0.36 93 1007.5
20260505214035 12 35 0.0 4.8 0.10 0.36 0.36 94 1007.5
20260505213547 12 35 1.6 4.8 0.10 0.33 0.33 94 1007.4
20260505213039 12 34 0.0 0.0 0.13 0.33 0.33 93 1007.8
20260505212531 12 34 0.0 0.0 0.13 0.33 0.33 93 1007.5
20260505212103 12 34 0.0 0.0 0.10 0.30 0.30 93 1007.4
20260505211538 12 34 0.0 8.0 0.10 0.30 0.30 93 1007.6
20260505211030 12 34 3.2 8.0 0.13 0.30 0.30 93 1007.5
20260505210543 12 37 0.0 0.0 0.13 0.30 0.30 92 1007.5
20260505210036 13 37 0.0 1.6 0.13 0.28 0.28 92 1007.5
20260505205528 13 37 0.0 8.0 0.13 0.28 0.28 92 1007.5
20260505205100 13 37 0.0 14.5 0.10 0.25 0.25 92 1007.4
20260505204531 14 348 1.6 14.5 0.13 0.25 0.25 93 1007.5
20260505204042 14 265 0.0 8.0 0.15 0.25 0.25 93 1007.3
20260505203535 14 265 0.0 11.3 0.13 0.23 0.23 93 1007.4
20260505203031 14 266 4.8 11.3 0.13 0.23 0.23 93 1007.4
20260505202543 14 250 0.0 3.2 0.13 0.20 0.20 93 1007.5
20260505202055 14 250 0.0 1.6 0.13 0.20 0.20 92 1007.4
20260505201526 14 250 0.0 4.8 0.15 0.20 0.20 92 1007.4
20260505201039 14 250 0.0 4.8 0.13 0.18 0.18 92 1007.4
20260505200531 14 250 0.0 6.4 0.13 0.18 0.18 92 1007.5
20260505200043 14 250 1.6 6.4 0.13 0.15 0.15 91 1007.4
20260505195554 15 249 0.0 6.4 0.13 0.15 0.15 91 1007.5
20260505195025 15 250 0.0 8.0 0.15 0.15 0.15 91 1007.5
20260505194535 15 250 0.0 8.0 0.13 0.13 0.13 90 1007.6
20260505194031 15 250 0.0 4.8 0.10 0.10 0.10 89 1007.7
20260505193543 15 250 1.6 11.3 0.10 0.10 0.10 89 1007.6
20260505193035 15 250 3.2 11.3 0.10 0.10 0.10 88 1007.7
20260505192526 15 264 0.0 4.8 0.08 0.08 0.08 88 1007.8
20260505192040 15 265 1.6 8.0 0.08 0.08 0.08 87 1007.8
20260505191530 15 265 1.6 9.7 0.05 0.05 0.05 86 1007.8
20260505191101 15 263 3.2 9.7 0.05 0.05 0.05 85 1007.8
20260505190530 15 242 4.8 8.0 0.05 0.05 0.05 85 1007.7
20260505190042 15 242 0.0 11.3 0.03 0.03 0.03 83 1007.7
20260505185535 16 242 0.0 24.1 0.03 0.03 0.03 82 1007.8
20260505185029 16 240 6.4 24.1 0.00 0.00 0.00 81 1007.7
20260505184538 16 218 6.4 16.1 0.00 0.00 0.00 80 1007.7
20260505184030 16 248 9.7 17.7 0.00 0.00 0.00 79 1007.8
20260505183541 16 209 8.0 17.7 0.00 0.00 0.00 78 1007.7
20260505183032 17 217 1.6 19.3 0.00 0.00 0.00 77 1007.7
20260505182545 17 211 6.4 16.1 0.00 0.00 0.00 77 1007.7
20260505182057 17 255 8.0 22.5 0.00 0.00 0.00 75 1007.6
20260505181526 17 200 8.0 22.5 0.00 0.00 0.00 75 1007.5
20260505181036 17 274 12.9 20.9 0.00 0.00 0.00 74 1007.5
20260505180527 17 265 6.4 20.9 0.00 0.00 0.00 74 1007.4
20260505180039 17 261 6.4 20.9 0.00 0.00 0.00 73 1007.5
20260505175531 17 242 8.0 29.0 0.00 0.00 0.00 73 1007.4
20260505175026 18 260 17.7 29.0 0.00 0.00 0.00 73 1007.4
20260505174538 18 254 6.4 17.7 0.00 0.00 0.00 73 1007.3
20260505174032 18 259 8.0 25.7 0.00 0.00 0.00 73 1007.3
20260505173604 17 221 11.3 25.7 0.00 0.00 0.00 72 1007.3
20260505173035 17 219 11.3 24.1 0.00 0.00 0.00 73 1007.3
20260505172547 17 234 11.3 24.1 0.00 0.00 0.00 73 1007.3
20260505172057 17 231 3.2 20.9 0.00 0.00 0.00 73 1007.3
20260505171528 17 217 11.3 27.4 0.00 0.00 0.00 73 1007.3
20260505171039 17 238 14.5 37.0 0.00 0.00 0.00 73 1007.3
20260505170550 17 282 16.1 37.0 0.00 0.00 0.00 72 1007.3
20260505170100 17 240 12.9 27.4 0.00 0.00 0.00 71 1007.4
20260505165531 18 283 17.7 27.4 0.00 0.00 0.00 71 1007.3
20260505165026 18 254 12.9 27.4 0.00 0.00 0.00 71 1007.3
20260505164539 18 286 14.5 27.4 0.00 0.00 0.00 71 1007.2
20260505164031 18 243 8.0 29.0 0.00 0.00 0.00 70 1007.2
20260505163543 18 247 11.3 32.2 0.00 0.00 0.00 70 1007.2
20260505163036 18 277 8.0 32.2 0.00 0.00 0.00 69 1007.1
20260505162528 18 236 12.9 29.0 0.00 0.00 0.00 69 1007.2
20260505162040 18 229 12.9 20.9 0.00 0.00 0.00 68 1007.2
20260505161532 18 234 9.7 24.1 0.00 0.00 0.00 68 1007.0
20260505161048 18 229 16.1 30.6 0.00 0.00 0.00 67 1007.1
20260505160601 18 223 19.3 30.6 0.00 0.00 0.00 67 1007.2
20260505153043 20 267 12.9 24.1 0.00 0.00 0.00 65 1006.5
20260505152535 20 184 6.4 27.4 0.00 0.00 0.00 65 1006.4
20260505152027 20 261 14.5 27.4 0.00 0.00 0.00 65 1006.5
20260505151543 20 312 6.4 32.2 0.00 0.00 0.00 64 1006.1
20260505151035 20 202 9.7 25.7 0.00 0.00 0.00 65 1006.0
20260505150547 19 229 16.1 25.7 0.00 0.00 0.00 65 1005.7
20260505140555 18 259 12.9 48.3 0.00 0.00 0.00 68 1006.2
20260505125038 16 211 6.4 20.9 0.00 0.00 0.00 74 1005.7
20260505124531 16 252 8.0 17.7 0.00 0.00 0.00 73 1005.9
20260505124103 16 190 4.8 25.7 0.00 0.00 0.00 73 1005.7
20260505123534 16 231 9.7 25.7 0.00 0.00 0.00 73 1005.8
20260505123026 16 216 4.8 22.5 0.00 0.00 0.00 73 1005.9
20260505122538 16 233 6.4 24.1 0.00 0.00 0.00 73 1005.7